Regional Weather Roundup
Issued by NWS

Home | Current Version | Previous Version | Graphics & Text | Print | Product List | Glossary Off
Versions: 1 2 3 4 5 6 7 8 9 10 11 12 13 14 15 16 17 18 19 20 21 22 23 24 25 26 27 28 29 30 31 32 33 34 35 36 37 38 39 40 41 42 43 44 45 46 47 48 49 50

000
ASUS43 KMKX 291600
RWRWI

WISCONSIN REGIONAL WEATHER ROUNDUP
NATIONAL WEATHER SERVICE MILWAUKEE/SULLIVAN WI
1100 AM CDT MON MAY 29 2017

NOTE: "FAIR" INDICATES FEW OR NO CLOUDS BELOW 12,000 FEET WITH NO
SIGNIFICANT WEATHER AND/OR OBSTRUCTIONS TO VISIBILITY.

WIZ001-002-006>008-014>016-023>028-291700-
NORTHWEST WISCONSIN

CITY           SKY/WX    TMP DP  RH WIND       PRES   REMARKS
SUPERIOR ARPT  NOT AVBL
ASHLAND        CLOUDY    59  50  72 W15G24    29.66S
HAYWARD        CLOUDY    56  47  71 VRB7      29.71S
SIREN          CLOUDY    56  47  71 W8        29.75R
CUMBERLAND     CLOUDY    54  46  76 W12       29.75S
RICE LAKE      CLOUDY    55  48  79 W10G17    29.76S
CHETEK         CLOUDY    56  49  78 NW8G18    29.75S
LADYSMITH      CLOUDY    56  52  87 W9        29.74R
EAU CLAIRE     NOT AVBL
MENOMONIE      CLOUDY    57  47  68 W16       29.78R
NEW RICHMOND   CLOUDY    54  47  78 NW14      29.78S HAZE
OSCEOLA        CLOUDY    56  49  76 W12       29.81R
$$

WIZ003>005-009-010-017-018-291700-
NORTH CENTRAL WISCONSIN

CITY           SKY/WX    TMP DP  RH WIND       PRES   REMARKS
MANITOWISH WTR CLOUDY    53  53 100 W13G20    29.66S
ARBOR VITAE    CLOUDY    55  51  89 W9        29.67S
WOODRUFF       CLOUDY    55  51  89 W9        29.67S
RHINELANDER    CLOUDY    57  50  77 W14       29.69R
EAGLE RIVER    CLOUDY    52  49  92 SW14G21   29.67R
LAND O LAKES   CLOUDY    53  50  91 SW7       29.67S
PHILLIPS       CLOUDY    54  50  88 W5        29.69S
TOMAHAWK       LGT RAIN  53  48  84 W5        29.71R
MEDFORD        LGT RAIN  51  49  92 W13       29.72S
MERRILL        CLOUDY    54  50  86 W10       29.71S
$$

WIZ029-030-035-036-043>047-291700-
CENTRAL WISCONSIN

CITY           SKY/WX    TMP DP  RH WIND       PRES   REMARKS
WAUSAU         LGT RAIN  56  50  80 W12       29.71S
MOSINEE        LGT RAIN  55  52  88 W12       29.74R
MARSHFIELD     CLOUDY    57  50  77 W17G25    29.74S
STEVENS POINT  RAIN      51  51 100 SW13      29.75R
WAUPACA        PTSUNNY   61  50  67 W20G31    29.74R
WAUTOMA        CLOUDY    61  48  62 W22         N/A
WISC RAPIDS    CLOUDY    58  51  78 W13       29.77R
CAMP DOUGLAS   NOT AVBL
$$

WIZ011>013-019>022-031-037>040-048>050-291700-
NORTHEAST WISCONSIN

CITY           SKY/WX    TMP DP  RH WIND       PRES   REMARKS
ANTIGO         CLOUDY    53  49  89 W9        29.71S
SHAWANO        PTSUNNY   65  49  58 W16G25    29.69S
OCONTO         MOSUNNY   66  48  52 W14G22    29.66S
STURGEON BAY   SUNNY     64  49  57 W22       29.67S
GREEN BAY      MOSUNNY   64  53  67 W20G26    29.69S
MANITOWOC      NOT AVBL
APPLETON       PTSUNNY   63  46  55 W15G25    29.71R
CLINTONVILLE   CLOUDY    61  46  59 W15G22    29.70R
OSHKOSH        MOSUNNY   64  48  56 W16G26    29.72R
$$

WIZ032>034-041-042-053>061-291700-
SOUTHWEST WISCONSIN

CITY           SKY/WX    TMP DP  RH WIND       PRES   REMARKS
LA CROSSE      CLOUDY    62  49  62 W15       29.81R
SPARTA         CLOUDY    59  48  67 W7        29.80R
VIROQUA        CLOUDY    57  46  66 MISG      29.82R
BOSCOBEL       PTSUNNY   65  47  52 W13G22    29.83R
PRAIRIE DU CHI PTSUNNY   65  44  46 W17G32    29.84R
PLATTEVILLE    MOSUNNY   65  49  55 W23G31    29.84S
$$

WIZ056-057-062-063-064-067-068-291700-
SOUTH CENTRAL WISCONSIN

CITY           SKY/WX    TMP DP  RH WIND       PRES   REMARKS
REEDSBURG      PTSUNNY   62  47  59 W17G24    29.79R
BARABOO/DELLS  PTSUNNY   60  45  59 W13G25    29.78R
LONE ROCK      MOSUNNY   66  45  46 W21G29    29.81R
MINERAL POINT  MOSUNNY   64  46  52 W21G30    29.82S
MADISON        PTSUNNY   64  47  53 W12G22    29.78R
MIDDLETON      SUNNY     65  47  53 W18G26    29.79S
WATERTOWN      SUNNY     65  47  52 W13G25    29.77R
MONROE         SUNNY     64  45  48 W23G30    29.81S
JANESVILLE     MOSUNNY   68  46  45 W16G24    29.79S
$$

WIZ051-052-058>065-066-070>072-291700-
SOUTHEAST WISCONSIN

CITY           SKY/WX    TMP DP  RH WIND       PRES   REMARKS
MILWAUKEE      MOSUNNY   70  43  37 W21G32    29.76R
WAUKESHA       SUNNY     64  45  48 W20G32    29.78R
MILWAUKEE/TIMM SUNNY     66  39  37 W22G33    29.76R
RACINE         SUNNY     71  44  37 W20G26    29.78R
KENOSHA        SUNNY     71  46  40 W23G35    29.77S
FOND DU LAC    MOSUNNY   64  46  52 W23G30    29.73R
SHEBOYGAN      PTSUNNY   66  50  56 W25G33    29.72R
WEST BEND      SUNNY     64  45  48 W21G30    29.73R
JUNEAU         PTSUNNY   63  48  58 W15G24    29.77R
$$

LSZ147-162-291700-
LAKE SUPERIOR

STATION/POSITION TIME  TEMP    WIND        PRES    WAVE
                       AIR SEA DIR/SP/G            HT/PER
                 (UTC) (F)     (DEG/KT/KT) (MB)    (FT/S)
W MID LAKE BUOY  1450   42 37  260/ 12/ 14 1002.2R   2/ 4
DEVILS ISLAND    1500   46     240/ 18/ 20 1003.4R
SAXON HARBOR     1540   58     280/  5/  9 1004.1R
$$

LMZ867-665-643>646-291700-
LAKE MICHIGAN

STATION/POSITION TIME  TEMP    WIND        PRES    WAVE
                       AIR SEA DIR/SP/G            HT/PER
                 (UTC) (F)     (DEG/KT/KT) (MB)    (FT/S)
CHAMBERS ISLAND  1540   62     210/  7/ 10 1003.7S
N MID LAKE BUOY  1450   45 41  210/  8/ 10 1004.8F   1/ 4
NORTHPORT PIER   1540   63     240/  6/ 13 1004.1S
KEWAUNEE LAKESHO 1530   64     280/ 13/ 19 1004.7S
SHEBOYGAN LAKESH 1500   64     240/ 21/ 24 1005.1F
PORT WASHINGTON  1530   68     260/ 19/ 30 1007.1S
ATWATER BUOY     1409   63     230/ 14/ 25 1007.2R
MILWAUKEE LAKESH 1530   67     250/ 20/ 24   N/A
S MID LAKE BUOY  1450   52 47  260/ 10/ 10 1008.4R   1/ 3
KENOSHA   LAKESH 1500   69     250/ 15/ 24 1007.8
$$

TC  - TEMPERATURE IN CELSIUS
VSB - VISIBILITY IN STATUTE MILES
WCI - WIND CHILL INDEX
HX  - HEAT INDEX





USA.gov is the U.S. government's official web portal to all federal, state and local government web resources and services.